Location: Newark
(35.6799°N, 139.7636°E)
Time: 02:26:43
(UTC+00:00)

Explorer 7 - Visible Passes

Search period start: 10 December 2019 00:00
Search period end: 20 December 2019 00:00
Orbit: 485 x 680 km, 50.3° (Epoch: 08 December)

Date Brightness Start Highest point End Pass type
(mag) Time Alt. Az. Time Alt. Az. Time Alt. Az.
10 Dec 9.2 08:32:50 10° NW 08:36:03 17° NNW 08:39:02 11° NNE visible
11 Dec 9.3 08:38:35 10° NW 08:41:25 15° N 08:43:47 11° NNE visible
12 Dec 9.3 08:44:10 10° NW 08:46:48 14° N 08:48:34 12° NNE visible
13 Dec 9.2 08:49:32 10° NNW 08:52:13 14° N 08:53:22 13° NNE visible
14 Dec 9.1 08:54:39 10° NNW 08:57:36 16° N 08:58:12 15° NNE visible
15 Dec 8.9 08:59:35 10° NNW 09:02:57 18° NNE 09:03:06 18° NNE visible
16 Dec 8.6 09:04:25 10° NNW 09:08:05 22° NNE 09:08:05 22° NNE visible
17 Dec 8.3 09:09:12 10° NW 09:13:11 29° NNE 09:13:11 29° NNE visible
18 Dec 7.8 09:14:00 10° NW 09:18:25 39° NNE 09:18:25 39° NNE visible
18 Dec 10.3 10:54:44 10° WNW 10:54:47 10° WNW 10:54:47 10° WNW visible
19 Dec 7.2 09:18:49 10° NW 09:23:42 59° NE 09:23:51 59° NE visible
19 Dec 10.4 11:00:11 10° WNW 11:00:14 10° WNW 11:00:14 10° WNW visible
